Total_Precipitation_Accumulation
0.42 0.33 0.41 0.38 0.35 0.44 0.46 0.58 0.65 0.62 0.55 0.51 0.51 0.55 0.55 0.54 0.53 0.50 0.53 0.68 0.81 0.95 1.10 1.33 1.45 1.55 1.57 1.67 1.76 1.79 1.89 1.87 1.98 2.21 2.49 2.60 2.63 2.47 2.41 2.64 2.71 2.46 2.44
0.33 0.31 0.34 0.30 0.30 0.39 0.48 0.60 0.60 0.59 0.58 0.55 0.51 0.56 0.62 0.61 0.56 0.52 0.55 0.72 0.94 1.08 1.17 1.32 1.44 1.44 1.47 1.57 1.73 1.84 1.95 1.88 1.99 2.39 2.73 2.81 2.92 2.77 2.65 2.64 2.68 2.77 2.55
0.42 0.42 0.28 0.30 0.32 0.38 0.49 0.57 0.63 0.59 0.58 0.53 0.51 0.52 0.57 0.58 0.62 0.65 0.69 0.86 1.09 1.31 1.36 1.38 1.50 1.54 1.47 1.55 1.70 1.82 1.86 1.91 2.26 2.72 3.15 2.89 2.76 2.79 2.73 2.72 2.49 2.32 2.23
0.39 0.40 0.28 0.33 0.40 0.42 0.48 0.55 0.68 0.63 0.59 0.56 0.53 0.52 0.57 0.61 0.69 0.80 0.91 1.05 1.20 1.39 1.55 1.71 1.88 1.78 1.58 1.53 1.56 1.68 1.89 2.07 2.52 2.99 3.40 3.05 2.75 3.13 3.13 2.80 2.51 2.23 2.13
0.30 0.32 0.38 0.43 0.47 0.50 0.51 0.55 0.63 0.66 0.67 0.68 0.69 0.63 0.64 0.68 0.73 0.78 0.92 1.05 1.13 1.22 1.43 1.58 1.66 1.73 1.57 1.49 1.49 1.64 1.93 2.19 2.66 3.13 3.51 3.29 3.19 3.57 3.30 2.86 2.64 2.28 2.09
0.36 0.30 0.38 0.49 0.51 0.54 0.59 0.59 0.59 0.64 0.73 0.82 0.89 0.84 0.81 0.82 0.85 0.89 1.01 1.04 1.11 1.15 1.22 1.35 1.52 1.67 1.68 1.60 1.53 1.73 2.02 2.28 2.49 2.90 3.54 3.29 3.13 3.42 3.20 3.02 2.77 2.38 2.20
0.56 0.51 0.46 0.51 0.54 0.58 0.63 0.66 0.71 0.72 0.80 0.91 0.98 1.03 1.02 0.98 0.93 1.01 1.14 1.08 1.08 1.14 1.19 1.19 1.25 1.32 1.66 1.76 1.60 1.70 2.13 2.56 2.49 3.09 3.53 3.33 3.34 3.31 3.21 3.21 3.00 2.60 2.31
0.72 0.67 0.68 0.63 0.57 0.64 0.74 0.74 0.80 0.88 0.92 1.01 1.09 1.20 1.16 1.06 1.02 1.10 1.22 1.25 1.24 1.28 1.31 1.17 1.10 1.14 1.38 1.61 1.52 1.62 1.93 2.22 2.18 2.81 3.33 3.16 3.08 3.10 3.16 3.21 2.89 2.57 2.34
0.93 0.92 0.92 0.77 0.71 0.78 0.90 0.89 0.91 0.95 1.01 1.10 1.27 1.39 1.33 1.22 1.19 1.23 1.29 1.35 1.41 1.41 1.40 1.36 1.27 1.23 1.25 1.40 1.48 1.64 1.93 2.25 2.28 2.56 2.76 3.09 3.01 3.38 3.29 3.08 2.80 2.42 2.19
1.29 1.27 1.20 1.19 1.15 1.05 1.09 1.22 1.18 1.15 1.14 1.14 1.23 1.46 1.48 1.36 1.29 1.35 1.31 1.42 1.50 1.53 1.50 1.53 1.58 1.53 1.40 1.37 1.47 1.60 1.94 2.15 1.99 2.29 2.90 2.90 2.96 3.52 3.62 3.12 2.76 2.51 2.30
1.70 1.64 1.43 1.48 1.50 1.36 1.32 1.29 1.43 1.40 1.34 1.29 1.32 1.48 1.54 1.62 1.63 1.59 1.51 1.73 1.72 1.80 1.88 1.86 1.79 1.70 1.64 1.56 1.59 1.69 1.86 1.88 2.11 2.57 2.91 2.75 2.96 3.48 3.78 3.53 3.00 2.73 2.49
1.89 1.82 1.74 1.60 1.53 1.49 1.41 1.50 1.65 1.60 1.61 1.50 1.68 1.66 1.78 2.22 2.40 2.06 2.23 2.35 2.35 2.35 2.35 2.24 2.13 2.03 1.83 1.53 1.63 1.82 1.61 1.78 2.28 2.71 2.62 2.67 2.95 3.45 3.86 3.79 3.42 3.07 2.84
2.24 2.06 2.09 1.95 1.79 1.95 2.03 1.92 1.92 1.97 2.11 1.98 2.12 2.17 2.32 2.57 2.62 2.60 2.71 2.60 2.66 2.70 2.59 2.52 2.30 2.01 1.80 1.68 1.73 1.81 1.60 1.62 1.96 2.24 2.49 2.70 2.93 3.45 3.84 3.76 3.66 3.57 3.37
2.87 2.68 2.55 2.52 2.39 2.50 2.73 2.53 2.23 2.13 2.23 2.30 2.53 2.45 2.75 2.91 2.91 2.91 2.96 2.83 2.80 2.86 2.93 2.71 2.56 2.36 2.21 2.00 1.83 1.84 1.78 1.76 1.96 2.24 2.53 2.64 2.72 3.28 3.77 3.81 3.76 3.74 3.81
3.05 3.17 2.93 2.87 2.82 3.01 3.19 3.04 2.79 2.73 2.52 2.48 2.80 2.84 2.98 3.13 3.12 3.21 3.15 3.10 2.88 2.87 2.88 2.78 2.60 2.64 2.54 2.26 1.99 1.97 2.05 2.01 2.11 2.38 2.47 2.63 2.68 3.04 3.59 3.89 3.89 3.89 4.08
2.91 3.17 3.30 3.30 3.24 3.07 3.18 3.21 2.99 2.74 2.84 2.73 2.77 2.90 2.91 3.10 3.37 3.42 3.39 3.35 3.28 3.19 3.22 3.02 2.84 3.01 2.87 2.73 2.50 2.36 2.26 2.34 2.33 2.42 2.62 2.80 2.73 2.76 3.15 3.56 3.81 4.01 4.30
2.82 2.93 3.09 3.26 3.44 3.28 3.27 3.32 3.14 2.94 2.94 3.01 3.07 3.25 3.09 3.06 3.38 3.51 3.66 3.60 3.60 3.53 3.53 3.44 3.37 3.45 3.14 2.94 2.74 2.60 2.56 2.66 2.63 2.57 2.71 2.88 2.82 2.89 2.94 3.02 3.22 3.48 3.85
2.42 2.71 2.96 3.14 3.37 3.58 3.63 3.74 3.49 3.50 3.53 3.48 3.32 3.30 3.22 3.21 3.42 3.75 3.85 3.88 3.95 3.87 3.94 3.99 3.87 3.72 3.60 3.35 3.10 2.76 2.65 2.83 2.83 2.80 2.80 2.84 3.03 2.97 2.99 2.86 2.88 2.98 3.31
2.13 2.63 2.99 3.34 3.73 3.95 4.12 4.34 4.27 4.31 4.16 4.00 3.92 3.76 3.80 3.93 3.94 4.10 4.18 4.26 4.32 4.36 4.38 4.17 4.32 4.10 4.02 3.84 3.37 3.08 2.80 2.72 2.74 2.65 2.76 2.69 2.81 2.91 3.04 2.98 2.90 2.90 3.12
2.30 2.70 3.10 3.40 3.99 4.50 4.57 4.75 4.85 5.06 4.99 4.86 4.87 4.70 4.46 4.56 4.63 4.76 4.64 4.68 4.75 4.84 4.70 4.68 4.76 4.53 4.22 4.16 3.66 3.37 3.11 2.82 2.79 2.77 2.75 2.83 2.75 2.58 2.79 2.97 3.10 2.90 3.09
2.93 3.10 3.35 3.60 3.96 4.24 4.63 4.96 5.18 5.39 5.59 5.68 5.62 5.55 5.52 5.50 5.63 5.68 5.37 5.36 5.29 5.15 4.92 4.89 4.78 4.54 4.26 4.23 4.13 3.69 3.09 2.70 2.63 2.51 2.53 2.72 2.72 2.61 2.70 2.86 2.92 2.82 2.70
3.32 3.41 3.64 4.00 4.31 4.49 4.89 5.43 5.90 6.10 6.22 6.22 6.21 6.32 6.34 6.32 6.47 6.52 6.47 6.20 5.99 5.70 5.21 4.87 4.74 4.48 4.08 4.21 4.28 4.26 3.55 3.06 2.55 2.10 2.19 2.24 2.31 2.57 2.54 2.51 2.68 2.80 2.67
3.30 3.43 3.61 4.14 4.62 5.10 5.55 6.12 6.60 6.91 6.93 6.76 6.45 6.52 6.64 6.46 6.52 6.70 6.68 6.44 6.08 5.51 4.94 4.80 4.78 4.61 4.32 4.23 4.18 4.43 3.86 3.30 2.86 2.35 2.05 1.96 2.09 2.25 2.28 2.30 2.36 2.47 2.45
3.15 3.42 3.67 4.11 4.81 5.35 5.67 6.30 6.96 7.21 7.40 7.44 7.22 6.91 6.70 6.45 6.29 6.21 6.05 5.63 5.25 4.88 4.58 4.43 4.49 4.39 4.38 4.17 4.09 3.82 3.57 3.27 3.04 2.66 2.19 1.97 2.03 2.10 2.11 2.05 2.09 2.31 2.41
3.04 3.15 3.40 3.98 4.66 5.40 6.03 6.54 7.15 7.63 7.85 7.77 7.31 6.81 6.26 5.92 5.49 5.06 4.73 4.51 4.42 4.25 4.05 3.91 3.91 3.82 3.63 3.54 3.56 3.53 3.50 3.23 2.91 2.75 2.46 2.25 2.21 2.01 1.98 2.07 2.13 2.27 2.44
2.72 2.96 3.26 3.70 4.44 5.16 5.76 6.35 6.87 7.26 7.36 7.02 6.47 5.93 5.57 5.17 4.64 4.09 3.83 3.69 3.60 3.42 3.19 3.08 3.08 3.09 3.17 3.22 3.32 3.33 3.30 3.23 3.03 3.01 2.82 2.55 2.41 2.24 2.14 2.12 2.14 2.27 2.48